Home   Weather   Quesnel   Past weeks
Flag for Canada

Past Weather in Quesnel, British Columbia, Canada — Yesterday and Last 2 Weeks

Now
21 °F

Ice fog.


Feels Like: 21 °F
Forecast: 39 / 21 °F
Wind: 2 mph from Southeast

Location: Quesnel Airport

Current Time: Jan 26, 2020 at 4:26:50 am

Latest Report: Jan 26, 2020 at 3:00 am


Visibility: 0 mi

Pressure: 29.91 "Hg

Humidity: 100%

Dew Point: 21 °F

Location of QuesnelLocation

Past Weather in Quesnel — Graph

°F

Quesnel Temperature Yesterday

Maximum temperature yesterday: 34 °F (at 2:00 pm)
Minimum temperature yesterday: 19 °F (at 9:40 pm)
Average temperature yesterday: 26 °F

High & Low Weather Summary for the Past Weeks

 TemperatureHumidityPressure
High48 °F (Jan 23, 3:00 pm)100% (Jan 19, 4:08 am)30.64 "Hg (Jan 19, 4:08 am)
Low-42 °F (Jan 15, 7:37 am)57% (Jan 20, 2:00 pm)29.53 "Hg (Jan 21, 2:00 pm)
Average5 °F80%30.07 "Hg
* Reported Jan 11 3:00 am — Jan 26 3:00 am, Quesnel. Weather by CustomWeather, © 2020

Note: Actual official high and low records may vary slightly from our data, if they occured in-between our weather recording intervals... More about our weather records

Quesnel Weather History for the Previous 24 Hours

Scroll right to see more
 ConditionsComfort  
Time TempWeatherWind HumidityBarometerVisibility
3:00 am
Sun, Jan 26
21 °FIce fog.2 mph100%29.91 "Hg0 mi
2:00 am21 °FIce fog.2 mph93%29.93 "Hg0 mi
1:02 am19 °FIce fog.No wind93%29.96 "Hg1 mi
12:56 am21 °FIce fog.2 mph93%29.97 "Hg1 mi
12:00 am21 °FIce fog.2 mph93%29.98 "Hg0 mi
11:00 pm
Sat, Jan 25
21 °FIce fog.2 mph93%30.01 "Hg0 mi
10:09 pm25 °FIce fog.2 mph100%30.01 "Hg1 mi
9:51 pm19 °FIce fog.No wind93%30.03 "Hg1 mi
9:40 pm19 °FIce fog.2 mph93%30.03 "Hg3 mi
9:15 pm23 °FIce fog.3 mph93%30.03 "Hg2 mi
8:56 pm23 °FClear.No wind100%30.03 "Hg9 mi
8:33 pm21 °FIce fog.2 mph93%30.04 "Hg1 mi
8:03 pm23 °FIce fog.No wind93%30.03 "Hg2 mi
7:01 pm25 °FClear.2 mph100%30.03 "Hg7 mi
6:40 pm27 °FClear.2 mph100%30.02 "Hg7 mi
6:20 pm23 °FIce fog.2 mph100%30.01 "Hg3 mi
6:10 pm25 °FIce fog.No wind100%30.01 "Hg4 mi
5:00 pm28 °FClear.2 mph100%29.99 "Hg9 mi
4:00 pm34 °FSunny.6 mph87%29.98 "Hg9 mi
3:00 pm34 °FPassing clouds.2 mph93%29.97 "Hg9 mi
2:00 pm34 °FPassing clouds.9 mph87%29.96 "Hg9 mi
1:00 pm32 °FPartly sunny.3 mph100%29.98 "Hg8 mi
12:00 pm30 °FScattered clouds.5 mph100%29.98 "Hg9 mi
11:00 am28 °FSunny.3 mph100%29.98 "Hg9 mi
10:00 am27 °FPassing clouds.2 mph100%29.97 "Hg8 mi
9:00 am27 °FPartly sunny.8 mph100%29.94 "Hg9 mi
8:37 am27 °FBroken clouds.5 mph93%29.94 "Hg9 mi
8:16 am25 °FLow clouds.2 mph93%29.94 "Hg9 mi
8:08 am23 °FIce fog.2 mph100%29.94 "Hg1 mi
7:54 am23 °FIce fog.2 mph100%29.93 "Hg0 mi
7:39 am21 °FIce fog.2 mph100%29.93 "Hg0 mi
7:25 am25 °FIce fog.No wind93%29.93 "Hg1 mi
7:00 am25 °FPassing clouds.No wind100%29.92 "Hg7 mi
6:40 am27 °FIce fog.No wind93%29.91 "Hg2 mi
6:22 am27 °FIce fog.2 mph93%29.90 "Hg1 mi
6:00 am27 °FIce fog.No wind93%29.90 "Hg0 mi
5:00 am27 °FIce fog.2 mph100%29.90 "Hg1 mi
4:59 am27 °FIce fog.2 mph100%29.90 "Hg1 mi
4:00 am27 °FIce fog.No wind100%29.90 "Hg0 mi
Weather by CustomWeather, © 2020

See weather overview

Advertising